Flag for U.S.A. Weather past 2 weeks in Sterling Heights, Michigan, U.S.A.

Now
28 °F

Partly cloudy.


Feels Like: 20 °F
Forecast: 27 / 41 °F
Wind: 7 mph from East

Location: Selfridge Air National Guard Base

Current Time: Dec 22, 2014 at 8:38:32 AM

Latest Report: Dec 22, 2014 at 7:55 AM


Visibility: 10 mi

Pressure: 30.12 "Hg

Humidity: 98%

Dew point: 27 °F

Location of Sterling HeightsLocation

Historic Weather in Sterling Heights — Graph

°F

Sterling Heights temperature yesterday

Maximum temperature yesterday: 35 °F (at 1:55 PM)
Minimum temperature yesterday: 22 °F (at 6:58 AM)
Average temperature yesterday: 29 °F

Past Weeks' High & Low Weather Summary

 TemperatureHumidityPressure
High50 °F (Dec 14, 11:55 AM)100% (Dec 8, 10:55 PM)30.74 "Hg (Dec 8, 10:55 PM)
Low20 °F (Dec 7, 6:58 AM)24% (Dec 11, 1:55 PM)29.63 "Hg (Dec 16, 12:59 PM)
Average34 °F87%30.15 "Hg
* Reported Dec 7 6:58 AM — Dec 22 6:58 AM, Sterling Heights, Weather by CustomWeather, © 2014

Note: Actual official high and low records may vary slightly from our data, if they occured in-between our weather recording intervals... More about our weather records

Advertising

Sterling Heights weather history for previous 24 hours

 ConditionsComfort  
Time TempWeatherWind HumidityBarometerVisibility
6:58 AM
Dec 22
28 °FClear.7 mph98%30.13 "Hg10 mi
6:03 AM28 °FPassing clouds.6 mph93%30.11 "Hg10 mi
4:58 AM31 °FOvercast.7 mph85%30.14 "Hg10 mi
3:58 AM31 °FOvercast.8 mph80%30.14 "Hg10 mi
2:58 AM31 °FOvercast.8 mph82%30.17 "Hg10 mi
1:58 AM31 °FOvercast.9 mph82%30.18 "Hg10 mi
12:58 AM30 °FPassing clouds.8 mph85%30.20 "Hg10 mi
11:58 PM
Dec 21
29 °FClear.8 mph89%30.21 "Hg10 mi
10:58 PM29 °FClear.8 mph92%30.23 "Hg10 mi
9:58 PM28 °FPassing clouds.8 mph94%30.24 "Hg10 mi
8:58 PM31 °FOvercast.9 mph84%30.25 "Hg10 mi
7:55 PM30 °FMostly cloudy.7 mph86%30.26 "Hg7 mi
6:55 PM31 °FMostly cloudy.9 mph83%30.27 "Hg7 mi
5:55 PM29 °FPartly cloudy.8 mph89%30.27 "Hg7 mi
4:55 PM31 °FBroken clouds.9 mph83%30.27 "Hg7 mi
3:55 PM33 °FPartly sunny.9 mph73%30.26 "Hg7 mi
2:55 PM34 °FPartly sunny.13 mph71%30.25 "Hg10 mi
1:55 PM35 °FPartly sunny.9 mph71%30.27 "Hg10 mi
12:55 PM34 °FPartly sunny.13 mph70%30.29 "Hg10 mi
11:55 AM34 °FPartly sunny.12 mph71%30.32 "Hg7 mi
10:55 AM32 °FPartly sunny.8 mph83%30.34 "Hg7 mi
9:55 AM28 °FBroken clouds.No wind100%30.34 "Hg7 mi
8:55 AM24 °FIce fog.No wind99%30.33 "Hg5 mi
Weather by CustomWeather, © 2014

See weather overviewHow to use our weather pages